Weather History for KPSC - March, 2013

Change the Weather History Date:

Thursday, March 28, 2013

  Actual Average Record
Temperature  
Mean Temperature 55 °F 50 °F  
Max Temperature 67 °F 63 °F 77 °F (1994)
Min Temperature 42 °F 37 °F 24 °F (1998)
Degree Days  
Heating Degree Days 10 15  
Month to date heating degree days 532 534  
Since 1 July heating degree days 4150 4417  
Cooling Degree Days 0 0  
Month to date cooling degree days 0 0  
Year to date cooling degree days 0 0  
Growing Degree Days 5 (Base 50)    
Moisture  
Dew Point 42 °F    
Average Humidity 66    
Maximum Humidity 89    
Minimum Humidity 42    
Precipitation  
Precipitation T in 0.02 in 0.31 in (2014)
Month to date precipitation 0.23 0.71  
Year to date precipitation 0.71 2.79  
Snow  
Snow 0.00 in - - ()
Snow Depth 0.00 in    
Sea Level Pressure  
Sea Level Pressure 30.05 in    
Wind  
Wind Speed 2 mph (NNW)    
Max Wind Speed 8 mph    
Max Gust Speed 9 mph    
Visibility 10 miles    
Events      
T = Trace of Precipitation, MM = Missing Value Source: NWS Daily Summary

Daily Weather History Graph

Daily Weather History Graph

Search for Another Location

Airport or City:

Trip Planner

Search our weather history database for the weather conditions in past years. The results will help you decide how hot, cold, wet, or windy it might be!

Date:

Astronomy

Mar. 28, 2013 Rise Set
Actual Time 6:43 AM PDT 7:20 PM PDT
Civil Twilight 6:13 AM PDT 7:50 PM PDT
Nautical Twilight 5:37 AM PDT 8:26 PM PDT
Astronomical Twilight 5:00 AM PDT 9:04 PM PDT
Moon 9:26 PM PDT (3/28) 7:07 AM PDT (3/28)
Length of Visible Light 13h 37m
Length of Day
12h 37m
Full, 98% of the Moon is Illuminated
Mar 28
Full
Apr 2
Last Quarter
Apr 10
New
Apr 18
First Quarter
Apr 25
Full

Hourly Weather History & Observations

Time (PDT) Temp. Windchill Dew Point Humidity Pressure Visibility Wind Dir Wind Speed Gust Speed Precip Events Conditions
12:53 AM 48.9 °F - 42.1 °F 77% 29.99 in 10.0 mi Calm Calm - N/A   Overcast
1:53 AM 48.0 °F - 43.0 °F 83% 30.00 in 10.0 mi NW 4.6 mph - N/A   Overcast
2:53 AM 48.0 °F - 42.1 °F 80% 30.01 in 10.0 mi Calm Calm - N/A   Overcast
3:53 AM 46.0 °F 43.1 °F 42.1 °F 86% 30.02 in 10.0 mi NNW 5.8 mph - N/A   Overcast
4:53 AM 46.0 °F 42.5 °F 41.0 °F 83% 30.02 in 10.0 mi NW 6.9 mph - N/A   Overcast
5:53 AM 44.1 °F - 39.9 °F 85% 30.03 in 10.0 mi Calm Calm - N/A   Clear
6:53 AM 44.1 °F 42.5 °F 39.0 °F 82% 30.04 in 10.0 mi ENE 3.5 mph - N/A   Scattered Clouds
7:53 AM 45.0 °F 43.5 °F 41.0 °F 86% 30.06 in 10.0 mi NNW 3.5 mph - N/A   Mostly Cloudy
8:53 AM 50.0 °F - 43.0 °F 77% 30.07 in 10.0 mi NNW 5.8 mph - N/A   Partly Cloudy
9:53 AM 54.0 °F - 42.1 °F 64% 30.07 in 10.0 mi NNW 4.6 mph - N/A   Clear
10:53 AM 55.0 °F - 43.0 °F 64% 30.08 in 10.0 mi Calm Calm - N/A   Mostly Cloudy
11:53 AM 57.0 °F - 43.0 °F 59% 30.08 in 10.0 mi Calm Calm - N/A   Overcast
12:53 PM 61.0 °F - 43.0 °F 52% 30.07 in 10.0 mi Variable 3.5 mph - 0.00 in   Mostly Cloudy
1:53 PM 62.1 °F - 41.0 °F 46% 30.06 in 10.0 mi WNW 3.5 mph - N/A   Mostly Cloudy
2:53 PM 64.9 °F - 41.0 °F 42% 30.04 in 10.0 mi Calm Calm - N/A   Mostly Cloudy
3:53 PM 66.0 °F - 42.1 °F 42% 30.03 in 10.0 mi NNW 3.5 mph - N/A   Mostly Cloudy
4:53 PM 64.9 °F - 42.1 °F 43% 30.03 in 10.0 mi Calm Calm - N/A   Clear
5:53 PM 64.9 °F - 41.0 °F 42% 30.03 in 10.0 mi Calm Calm - N/A   Clear
6:53 PM 63.0 °F - 42.1 °F 46% 30.03 in 10.0 mi Calm Calm - N/A   Clear
7:53 PM 57.0 °F - 42.1 °F 57% 30.04 in 10.0 mi Calm Calm - N/A   Clear
8:53 PM 50.0 °F - 43.0 °F 77% 30.06 in 10.0 mi North 3.5 mph - N/A   Clear
9:53 PM 50.0 °F - 42.1 °F 74% 30.06 in 10.0 mi Calm Calm - N/A   Clear
10:53 PM 45.0 °F 41.8 °F 41.0 °F 86% 30.08 in 10.0 mi NNW 5.8 mph - N/A   Clear
11:53 PM 43.0 °F 41.3 °F 39.9 °F 89% 30.09 in 10.0 mi North 3.5 mph - N/A   Clear